Weather Roundup
Issued by NWS Chicago, IL

Home | Current Version | Previous Version | Graphics & Text | Print | Product List | Glossary On
Versions: 1 2 3 4 5 6 7 8 9 10 11 12 13 14 15 16 17 18 19 20 21 22 23 24 25 26 27 28 29 30 31 32 33 34 35 36 37 38 39 40 41 42 43 44 45 46 47 48 49 50
748
NZUS59 KLOT 251503
HRRLOT

CHICAGO AREA WEATHER ROUNDUP
NATIONAL WEATHER SERVICE CHICAGO/ROMEOVILLE IL
1000 AM CDT TUE APR 25 2017

NOTE: "FAIR" INDICATES FEW OR NO CLOUDS BELOW 12,000 FEET WITH NO
SIGNIFICANT WEATHER AND/OR OBSTRUCTIONS TO VISIBILITY.

* THESE STATIONS ARE NOT UNDER NWS QUALITY CONTROL. THEY ALSO MAY NOT
  REPORT WEATHER SUCH AS PRECIPITATION OR FOG.

ILZ005-006-012>014-019>023-251600-
NORTHEAST ILLINOIS

CITY           SKY/WX    TMP DP  RH WIND       PRES   REMARKS
OHARE          PTSUNNY   68  49  50 S10       29.69
MIDWAY         PTSUNNY   67  51  56 S12       29.71
AURORA         SUNNY     68  51  54 S10G18    29.70
LANSING*       SUNNY     65  56  71 S10       29.72F
JOLIET*        SUNNY     68  52  56 S7        29.70F
WAUKEGAN       MOSUNNY   61  52  72 SE7       29.69
DUPAGE AIRPORT SUNNY     67  51  56 S12       29.69
WHEELING       MOSUNNY   67  53  61 S10       29.71
KANKAKEE*      SUNNY     71  49  46 S8        29.72F
MORRIS*        SUNNY     70  49  47 S7        29.68F
LEWIS AIRPORT* SUNNY     67  54  62 S10       29.71S
NORTHERLY ISL    N/A     65  52  62 SE6         N/A
$$

WIZ051-052-058>065-066-070>072-251600-
SOUTHEAST WISCONSIN

CITY           SKY/WX    TMP DP  RH WIND       PRES   REMARKS
MILWAUKEE      MOSUNNY   63  50  62 SE10      29.68
KENOSHA*       SUNNY     66  51  58 SE9       29.69
RACINE*        SUNNY     57  48  72 S12       29.71
WAUKESHA       SUNNY     63  46  55 SE9       29.68
WEST BEND      SUNNY     63  46  55 SE8       29.67F
$$

INZ001>003-010>013-019-020-251600-
NORTHWEST INDIANA

CITY           SKY/WX    TMP DP  RH WIND       PRES   REMARKS
GARY*          MOSUNNY   66  50  55 S12       29.72
MICHIGAN CITY* NOT AVBL
RENSSELAER*    NOT AVBL
VALPARAISO     CLOUDY    68  54  60 S12       29.74
$$

LMZ740>746-251600-
SOUTHERN LAKE MICHIGAN

STATION/POSITION TIME  SKY/WX   TEMP WIND        PRES    VSBY
                                AIR  DIR/SP/G
                 (UTC)          (F)  (DEG/KT/KT) (MB)    (MI)
HARRISON CRIB    1430            60  160/ 15/ 17   N/A
BURNHAM HARBOR   1500            66  140/  9/ 13   N/A
CALUMET HARBOR   1430            63  150/ 11/ 17 1005.8F
BURNS HARBOR     1440            66  170/  9/ 19 1007.1
MICHIGAN CITY    1440            63  140/ 17/ 19   N/A
$$

ABBREVIATIONS USED IN REMARKS
   TC - TEMPERATURE IN CELSIUS
  WCI - WIND CHILL INDEX
   HX - HEAT INDEX
  VSB - VISIBILITY
$$




USA.gov is the U.S. government's official web portal to all federal, state and local government web resources and services.